Year,Month,Day,Hour,Minute,Value (Times are PST for temperature in C)
2009,08,30,07,53,12.50
2009,08,30,07,54,12.50
2009,08,30,07,55,12.60
2009,08,30,07,56,12.70
2009,08,30,07,57,12.80
2009,08,30,07,58,12.80
2009,08,30,07,59,12.90
2009,08,30,08,00,13.00
2009,08,30,08,01,13.10
2009,08,30,08,02,13.10
2009,08,30,08,03,13.20
2009,08,30,08,04,13.20
2009,08,30,08,05,13.30
2009,08,30,08,06,13.40
2009,08,30,08,07,13.50
2009,08,30,08,08,13.50
2009,08,30,08,09,13.60
2009,08,30,08,10,13.70
2009,08,30,08,11,13.80
2009,08,30,08,12,13.90
2009,08,30,08,13,14.00
2009,08,30,08,14,14.00
2009,08,30,08,15,14.10
2009,08,30,08,16,14.20
2009,08,30,08,17,14.20
2009,08,30,08,18,14.20
2009,08,30,08,19,14.20
2009,08,30,08,20,14.30
2009,08,30,08,21,14.30
2009,08,30,08,22,14.30
2009,08,30,08,23,14.30
2009,08,30,08,24,14.30
2009,08,30,08,25,14.40
2009,08,30,08,26,14.40
2009,08,30,08,27,14.40
2009,08,30,08,28,14.50
2009,08,30,08,29,14.50
2009,08,30,08,30,14.60
2009,08,30,08,31,14.60
2009,08,30,08,32,14.60
2009,08,30,08,33,14.70
2009,08,30,08,34,14.70
2009,08,30,08,35,14.80
2009,08,30,08,36,14.80
2009,08,30,08,37,14.80
2009,08,30,08,38,14.80
2009,08,30,08,39,14.90
2009,08,30,08,40,14.90
2009,08,30,08,41,15.00
2009,08,30,08,42,15.00
2009,08,30,08,43,15.00
2009,08,30,08,44,15.00
2009,08,30,08,45,15.00
2009,08,30,08,46,15.00
2009,08,30,08,47,15.10
2009,08,30,08,48,15.20
2009,08,30,08,49,15.30
2009,08,30,08,50,15.40
2009,08,30,08,51,15.40
2009,08,30,08,52,15.50
2009,08,30,08,53,15.60
2009,08,30,08,54,15.60
2009,08,30,08,55,15.60
2009,08,30,08,56,15.60
2009,08,30,08,57,15.60
2009,08,30,08,58,15.70
2009,08,30,08,59,15.70
2009,08,30,09,00,15.80
2009,08,30,09,01,15.80
2009,08,30,09,02,15.80
2009,08,30,09,03,15.90
2009,08,30,09,04,15.90
2009,08,30,09,05,15.90
2009,08,30,09,06,15.90
2009,08,30,09,07,16.00
2009,08,30,09,08,16.00
2009,08,30,09,09,16.10
2009,08,30,09,10,16.10
2009,08,30,09,11,16.10
2009,08,30,09,12,16.20
2009,08,30,09,13,16.20
2009,08,30,09,14,16.30
2009,08,30,09,15,16.30
2009,08,30,09,16,16.40
2009,08,30,09,17,16.40
2009,08,30,09,18,16.50
2009,08,30,09,19,16.60
2009,08,30,09,20,16.70
2009,08,30,09,21,16.70
2009,08,30,09,22,16.80
2009,08,30,09,23,16.80
2009,08,30,09,24,16.90
2009,08,30,09,25,17.00
2009,08,30,09,26,17.00
2009,08,30,09,27,17.00
2009,08,30,09,28,17.10
2009,08,30,09,29,17.10
2009,08,30,09,30,17.20
2009,08,30,09,31,17.20
2009,08,30,09,32,17.30
2009,08,30,09,33,17.40
2009,08,30,09,34,17.60
2009,08,30,09,35,17.70
2009,08,30,09,36,17.70
2009,08,30,09,37,17.80
2009,08,30,09,38,17.80
2009,08,30,09,39,17.80
2009,08,30,09,40,17.90
2009,08,30,09,41,17.90
2009,08,30,09,42,17.90
2009,08,30,09,43,17.90
2009,08,30,09,44,17.90
2009,08,30,09,45,17.90
2009,08,30,09,46,17.80
2009,08,30,09,47,17.80
2009,08,30,09,48,17.80
2009,08,30,09,49,17.80
2009,08,30,09,50,17.80
2009,08,30,09,51,17.80
2009,08,30,09,52,17.90
2009,08,30,09,53,18.00
2009,08,30,09,54,18.00
2009,08,30,09,55,18.00
2009,08,30,09,56,17.90
2009,08,30,09,57,17.90
2009,08,30,09,58,17.90
2009,08,30,09,59,17.90
2009,08,30,10,00,18.00
2009,08,30,10,01,18.00
2009,08,30,10,02,18.10
2009,08,30,10,03,18.10
2009,08,30,10,04,18.20
2009,08,30,10,05,18.20
2009,08,30,10,06,18.30
2009,08,30,10,07,18.40
2009,08,30,10,08,18.50
2009,08,30,10,09,18.60
2009,08,30,10,10,18.70
2009,08,30,10,11,18.80
2009,08,30,10,12,18.90
2009,08,30,10,13,18.90
2009,08,30,10,14,18.90
2009,08,30,10,15,18.90
2009,08,30,10,16,19.00
2009,08,30,10,17,19.00
2009,08,30,10,18,18.90
2009,08,30,10,19,18.90
2009,08,30,10,20,18.90
2009,08,30,10,21,19.00
2009,08,30,10,22,18.90
2009,08,30,10,23,18.90
2009,08,30,10,24,19.00
2009,08,30,10,25,19.10
2009,08,30,10,26,19.10
2009,08,30,10,27,19.10
2009,08,30,10,28,19.20
2009,08,30,10,29,19.20
2009,08,30,10,30,19.30
2009,08,30,10,31,19.30
2009,08,30,10,32,19.30
2009,08,30,10,33,19.30
2009,08,30,10,34,19.30
2009,08,30,10,35,19.30
2009,08,30,10,36,19.30
2009,08,30,10,37,19.30
2009,08,30,10,38,19.30
2009,08,30,10,39,19.40
2009,08,30,10,40,19.30
2009,08,30,10,41,19.30
2009,08,30,10,42,19.30
2009,08,30,10,43,19.30
2009,08,30,10,44,19.30
2009,08,30,10,45,19.30
2009,08,30,10,46,19.30
2009,08,30,10,47,19.40
2009,08,30,10,48,19.40
2009,08,30,10,49,19.50
2009,08,30,10,50,19.60
2009,08,30,10,51,19.60
2009,08,30,10,52,19.70
2009,08,30,10,53,19.80
2009,08,30,10,54,19.80
2009,08,30,10,55,19.90
2009,08,30,10,56,20.00
2009,08,30,10,57,20.00
2009,08,30,10,58,20.00
2009,08,30,10,59,20.00
2009,08,30,11,00,20.00
2009,08,30,11,01,20.10
2009,08,30,11,02,20.10
2009,08,30,11,03,20.20
2009,08,30,11,04,20.20
2009,08,30,11,05,20.20
2009,08,30,11,06,20.20
2009,08,30,11,07,20.20
2009,08,30,11,08,20.30
2009,08,30,11,09,20.30
2009,08,30,11,10,20.30
2009,08,30,11,11,20.30
2009,08,30,11,12,20.30
2009,08,30,11,13,20.30
2009,08,30,11,14,20.30
2009,08,30,11,15,20.30
2009,08,30,11,16,20.30
2009,08,30,11,17,20.30
2009,08,30,11,18,20.20
2009,08,30,11,19,20.20
2009,08,30,11,20,20.20
2009,08,30,11,21,20.20
2009,08,30,11,22,20.20
2009,08,30,11,23,20.30
2009,08,30,11,24,20.40
2009,08,30,11,25,20.40
2009,08,30,11,26,20.50
2009,08,30,11,27,20.60
2009,08,30,11,28,20.60
2009,08,30,11,29,20.60
2009,08,30,11,30,20.60
2009,08,30,11,31,20.60
2009,08,30,11,32,20.50
2009,08,30,11,33,20.50
2009,08,30,11,34,20.40
2009,08,30,11,35,20.30
2009,08,30,11,36,20.30
2009,08,30,11,37,20.40
2009,08,30,11,38,20.40
2009,08,30,11,39,20.50
2009,08,30,11,40,20.50
2009,08,30,11,41,20.50
2009,08,30,11,42,20.60
2009,08,30,11,43,20.70
2009,08,30,11,44,20.70
2009,08,30,11,45,20.70
2009,08,30,11,46,20.80
2009,08,30,11,47,20.80
2009,08,30,11,48,20.80
2009,08,30,11,49,20.80
2009,08,30,11,50,20.90
2009,08,30,11,51,20.90
2009,08,30,11,52,20.90
2009,08,30,11,53,20.80
2009,08,30,11,54,20.60
2009,08,30,11,55,20.60
2009,08,30,11,56,20.50
2009,08,30,11,57,20.40
2009,08,30,11,58,20.30
2009,08,30,11,59,20.30
2009,08,30,12,00,20.40
2009,08,30,12,01,20.40
2009,08,30,12,02,20.40
2009,08,30,12,03,20.30
2009,08,30,12,04,20.30
2009,08,30,12,05,20.20
2009,08,30,12,06,20.20
2009,08,30,12,07,20.20
2009,08,30,12,08,20.30
2009,08,30,12,09,20.30
2009,08,30,12,10,20.40
2009,08,30,12,11,20.40
2009,08,30,12,12,20.40
2009,08,30,12,13,20.40
2009,08,30,12,14,20.40
2009,08,30,12,15,20.30
2009,08,30,12,16,20.30
2009,08,30,12,17,20.30
2009,08,30,12,18,20.30
2009,08,30,12,19,20.30
2009,08,30,12,20,20.30
2009,08,30,12,21,20.40
2009,08,30,12,22,20.40
2009,08,30,12,23,20.40
2009,08,30,12,24,20.40
2009,08,30,12,25,20.50
2009,08,30,12,26,20.50
2009,08,30,12,27,20.50
2009,08,30,12,28,20.50
2009,08,30,12,29,20.60
2009,08,30,12,30,20.60
2009,08,30,12,31,20.70
2009,08,30,12,32,20.70
2009,08,30,12,33,20.80
2009,08,30,12,34,20.80
2009,08,30,12,35,20.80
2009,08,30,12,36,20.80
2009,08,30,12,37,20.80
2009,08,30,12,38,20.90
2009,08,30,12,39,21.00
2009,08,30,12,40,21.10
2009,08,30,12,41,21.20
2009,08,30,12,42,21.20
2009,08,30,12,43,21.30
2009,08,30,12,44,21.30
2009,08,30,12,45,21.30
2009,08,30,12,46,21.30
2009,08,30,12,47,21.30
2009,08,30,12,48,21.20
2009,08,30,12,49,21.10
2009,08,30,12,50,21.10
2009,08,30,12,51,21.10
2009,08,30,12,52,21.10
2009,08,30,12,53,21.20
2009,08,30,12,54,21.20
2009,08,30,12,55,21.20
2009,08,30,12,56,21.30
2009,08,30,12,57,21.30
2009,08,30,12,58,21.30
2009,08,30,12,59,21.30
2009,08,30,13,00,21.40
2009,08,30,13,01,21.40
2009,08,30,13,02,21.40
2009,08,30,13,03,21.40
2009,08,30,13,04,21.40
2009,08,30,13,05,21.40
2009,08,30,13,06,21.30
2009,08,30,13,07,21.30
2009,08,30,13,08,21.30
2009,08,30,13,09,21.40
2009,08,30,13,10,21.40
2009,08,30,13,11,21.50
2009,08,30,13,12,21.60
2009,08,30,13,13,21.70
2009,08,30,13,14,21.80
2009,08,30,13,15,22.00
2009,08,30,13,16,22.10
2009,08,30,13,17,22.30
2009,08,30,13,18,22.40
2009,08,30,13,19,22.40
2009,08,30,13,20,22.40
2009,08,30,13,21,22.40
2009,08,30,13,22,22.40
2009,08,30,13,23,22.30
2009,08,30,13,24,22.10
2009,08,30,13,25,22.10
2009,08,30,13,26,22.00
2009,08,30,13,27,21.90
2009,08,30,13,28,21.80
2009,08,30,13,29,21.80
2009,08,30,13,30,22.00
2009,08,30,13,31,22.00
2009,08,30,13,32,22.10
2009,08,30,13,33,22.00
2009,08,30,13,34,21.70
2009,08,30,13,35,21.60
2009,08,30,13,36,21.60
2009,08,30,13,37,21.60
2009,08,30,13,38,21.70
2009,08,30,13,39,21.70
2009,08,30,13,40,21.70
2009,08,30,13,41,21.80
2009,08,30,13,42,21.80
2009,08,30,13,43,21.70
2009,08,30,13,44,21.70
2009,08,30,13,45,21.70
2009,08,30,13,46,21.70
2009,08,30,13,47,21.70
2009,08,30,13,48,21.80
2009,08,30,13,49,21.70
2009,08,30,13,50,21.60
2009,08,30,13,51,21.60
2009,08,30,13,52,21.60
2009,08,30,13,53,21.70
2009,08,30,13,54,21.80
2009,08,30,13,55,21.70
2009,08,30,13,56,21.70
2009,08,30,13,57,21.70
2009,08,30,13,58,21.70
2009,08,30,13,59,21.80
2009,08,30,14,00,21.80
2009,08,30,14,01,21.80
2009,08,30,14,02,21.90
2009,08,30,14,03,21.90
2009,08,30,14,04,22.00
2009,08,30,14,05,22.10
2009,08,30,14,06,22.10
2009,08,30,14,07,22.10
2009,08,30,14,08,22.10
2009,08,30,14,09,22.10
2009,08,30,14,10,22.20
2009,08,30,14,11,22.30
2009,08,30,14,12,22.30
2009,08,30,14,13,22.30
2009,08,30,14,14,22.30
2009,08,30,14,15,22.40
2009,08,30,14,16,22.50
2009,08,30,14,17,22.40
2009,08,30,14,18,22.40
2009,08,30,14,19,22.40
2009,08,30,14,20,22.40
2009,08,30,14,21,22.30
2009,08,30,14,22,22.40
2009,08,30,14,23,22.50
2009,08,30,14,24,22.50
2009,08,30,14,25,22.60
2009,08,30,14,26,22.70
2009,08,30,14,27,22.70
2009,08,30,14,28,22.70
2009,08,30,14,29,22.70
2009,08,30,14,30,22.80
2009,08,30,14,31,22.90
2009,08,30,14,32,22.90
2009,08,30,14,33,22.90
2009,08,30,14,34,23.00
2009,08,30,14,35,22.90
2009,08,30,14,36,22.90
2009,08,30,14,37,22.80
2009,08,30,14,38,22.60
2009,08,30,14,39,22.30
2009,08,30,14,40,22.10
2009,08,30,14,41,21.80
2009,08,30,14,42,21.70
2009,08,30,14,43,21.80
2009,08,30,14,44,21.80
2009,08,30,14,45,21.80
2009,08,30,14,46,21.80
2009,08,30,14,47,21.70
2009,08,30,14,48,21.80
2009,08,30,14,49,21.90
2009,08,30,14,50,22.00
2009,08,30,14,51,22.00
2009,08,30,14,52,21.90
2009,08,30,14,53,21.90
2009,08,30,14,54,22.00
2009,08,30,14,55,22.20
2009,08,30,14,56,22.20
2009,08,30,14,57,22.20
2009,08,30,14,58,22.20
2009,08,30,14,59,22.30
2009,08,30,15,00,22.30
2009,08,30,15,01,22.20
2009,08,30,15,02,22.10
2009,08,30,15,03,22.00
2009,08,30,15,04,21.90
2009,08,30,15,05,21.80
2009,08,30,15,06,21.80
2009,08,30,15,07,21.70
2009,08,30,15,08,21.80
2009,08,30,15,09,21.90
2009,08,30,15,10,22.00
2009,08,30,15,11,22.10
2009,08,30,15,12,22.00
2009,08,30,15,13,21.90
2009,08,30,15,14,21.80
2009,08,30,15,15,21.80
2009,08,30,15,16,21.80
2009,08,30,15,17,21.60
2009,08,30,15,18,21.50
2009,08,30,15,19,21.50
2009,08,30,15,20,21.60
2009,08,30,15,21,21.60
2009,08,30,15,22,21.70
2009,08,30,15,23,21.60
2009,08,30,15,24,21.60
2009,08,30,15,25,21.60
2009,08,30,15,26,21.50
2009,08,30,15,27,21.60
2009,08,30,15,28,21.70
2009,08,30,15,29,21.80
2009,08,30,15,30,21.80
2009,08,30,15,31,21.70
2009,08,30,15,32,21.70
2009,08,30,15,33,21.70
2009,08,30,15,34,21.80
2009,08,30,15,35,21.80
2009,08,30,15,36,21.90
2009,08,30,15,37,21.90
2009,08,30,15,38,21.80
2009,08,30,15,39,21.90
2009,08,30,15,40,21.90
2009,08,30,15,41,21.80
2009,08,30,15,42,21.80
2009,08,30,15,43,21.80
2009,08,30,15,44,21.50
2009,08,30,15,45,21.30
2009,08,30,15,46,21.20
2009,08,30,15,47,21.20
2009,08,30,15,48,21.30
2009,08,30,15,49,21.30
2009,08,30,15,50,21.20
2009,08,30,15,51,21.20
2009,08,30,15,52,21.20
2009,08,30,15,53,21.30
2009,08,30,15,54,21.30
2009,08,30,15,55,21.30
2009,08,30,15,56,21.30
2009,08,30,15,57,21.30
2009,08,30,15,58,21.30
2009,08,30,15,59,21.30
2009,08,30,16,00,21.30
2009,08,30,16,01,21.40
2009,08,30,16,02,21.40
2009,08,30,16,03,21.30
2009,08,30,16,04,21.30
2009,08,30,16,05,21.30
2009,08,30,16,06,21.30
2009,08,30,16,07,21.40
2009,08,30,16,08,21.40
2009,08,30,16,09,21.50
2009,08,30,16,10,21.50
2009,08,30,16,11,21.50
2009,08,30,16,12,21.50
2009,08,30,16,13,21.60
2009,08,30,16,14,21.60
2009,08,30,16,15,21.70
2009,08,30,16,16,21.80
2009,08,30,16,17,21.80
2009,08,30,16,18,21.80
2009,08,30,16,19,21.80
2009,08,30,16,20,21.70
2009,08,30,16,21,21.70
2009,08,30,16,22,21.80
2009,08,30,16,23,21.90
2009,08,30,16,24,21.90
2009,08,30,16,25,21.90
2009,08,30,16,26,21.80
2009,08,30,16,27,21.80
2009,08,30,16,28,21.80
2009,08,30,16,29,21.80
2009,08,30,16,30,21.90
2009,08,30,16,31,22.00
2009,08,30,16,32,21.90
2009,08,30,16,33,21.90
2009,08,30,16,34,21.80
2009,08,30,16,35,21.80
2009,08,30,16,36,21.80
2009,08,30,16,37,21.80
2009,08,30,16,38,21.80
2009,08,30,16,39,21.80
2009,08,30,16,40,21.80
2009,08,30,16,41,21.90
2009,08,30,16,42,22.00
2009,08,30,16,43,22.00
2009,08,30,16,44,22.10
2009,08,30,16,45,22.20
2009,08,30,16,46,22.30
2009,08,30,16,47,22.30
2009,08,30,16,48,22.30
2009,08,30,16,49,22.20
2009,08,30,16,50,22.20
2009,08,30,16,51,22.10
2009,08,30,16,52,22.10
2009,08,30,16,53,22.10
2009,08,30,16,54,22.10
2009,08,30,16,55,22.10
2009,08,30,16,56,22.10
2009,08,30,16,57,22.10
2009,08,30,16,58,22.10
2009,08,30,16,59,22.10
2009,08,30,17,00,22.10
2009,08,30,17,01,22.20
2009,08,30,17,02,22.20
2009,08,30,17,03,22.20
2009,08,30,17,04,22.20
2009,08,30,17,05,22.10
2009,08,30,17,06,22.10
2009,08,30,17,07,22.10
2009,08,30,17,08,22.10
2009,08,30,17,09,22.10
2009,08,30,17,10,21.90
2009,08,30,17,11,21.80
2009,08,30,17,12,21.80
2009,08,30,17,13,21.80
2009,08,30,17,14,21.80
2009,08,30,17,15,21.70
2009,08,30,17,16,21.70
2009,08,30,17,17,21.60
2009,08,30,17,18,21.60
2009,08,30,17,19,21.60
2009,08,30,17,20,21.50
2009,08,30,17,21,21.30
2009,08,30,17,22,21.30
2009,08,30,17,23,21.30
2009,08,30,17,24,21.20
2009,08,30,17,25,21.20
2009,08,30,17,26,21.20
2009,08,30,17,27,21.20
2009,08,30,17,28,21.20
2009,08,30,17,29,21.20
2009,08,30,17,30,21.20
2009,08,30,17,31,21.20
2009,08,30,17,32,21.30
2009,08,30,17,33,21.30
2009,08,30,17,34,21.30
2009,08,30,17,35,21.40
2009,08,30,17,36,21.40
2009,08,30,17,37,21.40
2009,08,30,17,38,21.30
2009,08,30,17,39,21.20
2009,08,30,17,40,21.10
2009,08,30,17,41,21.20
2009,08,30,17,42,21.30
2009,08,30,17,43,21.30
2009,08,30,17,44,21.30
2009,08,30,17,45,21.30
2009,08,30,17,46,21.30
2009,08,30,17,47,21.30
2009,08,30,17,48,21.30
2009,08,30,17,49,21.20
2009,08,30,17,50,21.20
2009,08,30,17,51,21.30
2009,08,30,17,52,21.30
2009,08,30,17,53,21.30
2009,08,30,17,54,21.30
2009,08,30,17,55,21.30
2009,08,30,17,56,21.30
2009,08,30,17,57,21.30
2009,08,30,17,58,21.30
2009,08,30,17,59,21.40
2009,08,30,18,00,21.40
2009,08,30,18,01,21.40
2009,08,30,18,02,21.40
2009,08,30,18,03,21.50
2009,08,30,18,04,21.50
2009,08,30,18,05,21.40
2009,08,30,18,06,21.40
2009,08,30,18,07,21.40
2009,08,30,18,08,21.40
2009,08,30,18,09,21.40
2009,08,30,18,10,21.40
2009,08,30,18,11,21.30
2009,08,30,18,12,21.30
2009,08,30,18,13,21.20
2009,08,30,18,14,21.10
2009,08,30,18,15,21.10
2009,08,30,18,16,21.10
2009,08,30,18,17,21.00
2009,08,30,18,18,21.00
2009,08,30,18,19,21.00
2009,08,30,18,20,20.90
2009,08,30,18,21,20.90
2009,08,30,18,22,20.90
2009,08,30,18,23,20.90
2009,08,30,18,24,20.90
2009,08,30,18,25,20.90
2009,08,30,18,26,20.90
2009,08,30,18,27,20.90
2009,08,30,18,28,20.90
2009,08,30,18,29,20.90
2009,08,30,18,30,20.80
2009,08,30,18,31,20.80
2009,08,30,18,32,20.80
2009,08,30,18,33,20.80
2009,08,30,18,34,20.80
2009,08,30,18,35,20.70
2009,08,30,18,36,20.70
2009,08,30,18,37,20.70
2009,08,30,18,38,20.60
2009,08,30,18,39,20.50
2009,08,30,18,40,20.50
2009,08,30,18,41,20.40
2009,08,30,18,42,20.30
2009,08,30,18,43,20.30
2009,08,30,18,44,20.30
2009,08,30,18,45,20.30
2009,08,30,18,46,20.30
2009,08,30,18,47,20.30
2009,08,30,18,48,20.20
2009,08,30,18,49,20.30
2009,08,30,18,50,20.30
2009,08,30,18,51,20.30
2009,08,30,18,52,20.30
2009,08,30,18,53,20.30
2009,08,30,18,54,20.30
2009,08,30,18,55,20.30
2009,08,30,18,56,20.30
2009,08,30,18,57,20.30
2009,08,30,18,58,20.30
2009,08,30,18,59,20.20
2009,08,30,19,00,20.10
2009,08,30,19,01,20.00
2009,08,30,19,02,20.00
2009,08,30,19,03,20.00
2009,08,30,19,04,20.00
2009,08,30,19,05,20.00
2009,08,30,19,06,20.00
2009,08,30,19,07,20.00
2009,08,30,19,08,20.00
2009,08,30,19,09,20.00
2009,08,30,19,10,20.00
2009,08,30,19,11,20.00
